K7OLI-13 Weather Reports


time (UTC)temp
F
wind
direction
speed
knots
gust
knots
rain 1hr
in
rain 24hr
in
rain mn
in
humidity
%
barometer
mb
20260506002035 66 331 3.5 5.2 0.00 0.00 0.00 68 1012.2
20260506001021 67 352 4.3 8.7 0.00 0.00 0.00 67 1012.2
20260506000028 67 230 2.6 3.5 0.00 0.00 0.00 66 1012.2
20260505235037 67 276 3.5 5.2 0.00 0.00 0.00 66 1012.2
20260505234026 67 15 4.3 5.2 0.00 0.00 0.00 66 1012.2
20260505233034 67 11 3.5 6.1 0.00 0.00 0.00 67 1012.2
20260505232024 67 341 4.3 6.1 0.00 0.00 0.00 68 1013.2
20260505231027 66 308 2.6 3.5 0.00 0.00 0.00 69 1012.4
20260505230021 65 62 2.6 4.3 0.00 0.00 0.00 70 1012.1
20260505225048 64 53 2.6 4.3 0.00 0.00 0.00 71 1013.1
20260505224037 65 264 3.5 4.3 0.00 0.00 0.00 72 1013.1
20260505223026 64 266 2.6 4.3 0.00 0.00 0.00 72 1013.1
20260505222038 64 286 3.5 4.3 0.00 0.00 0.00 72 1013.1
20260505221027 64 309 3.5 4.3 0.00 0.00 0.00 72 1013.1
20260505220031 64 262 2.6 4.3 0.00 0.00 0.00 73 1013.1
20260505215021 64 283 2.6 4.3 0.00 0.00 0.00 73 1013.1
20260505214049 64 284 3.5 5.2 0.00 0.00 0.00 73 1013.1
20260505213036 63 295 2.6 3.5 0.00 0.00 0.00 73 1013.1
20260505212047 64 289 2.6 4.3 0.00 0.00 0.00 73 1013.1
20260505211028 64 279 2.6 4.3 0.00 0.00 0.00 73 1013.1
20260505210023 64 263 3.5 5.2 0.00 0.00 0.00 72 1013.1
20260505205031 64 280 2.6 5.2 0.00 0.00 0.00 73 1013.1
20260505204021 63 274 2.6 4.3 0.00 0.00 0.00 73 1013.1
20260505203029 63 261 3.5 4.3 0.00 0.00 0.00 73 1013.1
20260505202039 63 288 2.6 3.5 0.00 0.00 0.00 73 1013.1
20260505201029 62 162 2.6 4.3 0.00 0.00 0.00 73 1013.1
20260505200034 63 240 3.5 5.2 0.00 0.00 0.00 72 1013.1
20260505195023 64 256 2.6 4.3 0.00 0.00 0.00 72 1013.1
20260505194031 63 205 2.6 3.5 0.00 0.00 0.00 73 1013.9
20260505193021 63 223 0.9 2.6 0.00 0.00 0.00 73 1014.1
20260505192051 63 279 2.6 3.5 0.00 0.00 0.00 73 1014.1
20260505191030 63 317 0.9 1.7 0.00 0.00 0.00 73 1014.1
20260505190019 64 203 1.7 3.5 0.00 0.00 0.00 70 1014.1
20260505185034 63 235 1.7 3.5 0.00 0.00 0.00 72 1013.1
20260505184024 62 38 3.5 4.3 0.00 0.00 0.00 74 1013.1
20260505183032 61 44 2.6 3.5 0.00 0.00 0.00 74 1013.1
20260505182021 62 274 1.7 3.5 0.00 0.00 0.00 73 1013.1
20260505181051 62 197 0.9 2.6 0.00 0.00 0.00 75 1013.9
20260505180021 61 283 1.7 2.6 0.00 0.00 0.00 74 1014.1
20260505175027 62 249 2.6 3.5 0.00 0.00 0.00 74 1013.1
20260505174035 61 177 1.7 2.6 0.00 0.00 0.00 75 1013.1
20260505173024 61 156 1.7 2.6 0.00 0.00 0.00 75 1013.1
20260505172032 60 106 1.7 3.5 0.00 0.00 0.00 77 1013.1
20260505171023 60 203 2.6 4.3 0.00 0.00 0.00 77 1013.1
20260505170022 59 219 1.7 2.6 0.00 0.00 0.00 78 1013.1
20260505165019 59 182 1.7 2.6 0.00 0.00 0.00 80 1013.1
20260505164026 59 247 0.9 4.3 0.00 0.00 0.00 80 1013.1
20260505163035 58 222 2.6 3.5 0.00 0.00 0.00 81 1013.1
20260505162047 58 223 2.6 3.5 0.00 0.00 0.00 81 1013.1
20260505161113 57 180 0.9 1.7 0.00 0.00 0.00 83 1013.1
20260505153027 56 231 3.5 3.5 0.00 0.00 0.00 87 1013.1
20260505152035 55 186 1.7 2.6 0.00 0.00 0.00 87 1013.1
20260505151024 55 164 1.7 2.6 0.00 0.00 0.00 88 1013.1
20260505140107 54 148 1.7 3.5 0.00 0.00 0.00 90 1012.2
20260505125024 54 165 3.5 4.3 0.00 0.00 0.00 90 1012.2
20260505124032 54 183 2.6 4.3 0.00 0.00 0.00 90 1011.2
20260505123023 54 173 3.5 5.2 0.00 0.00 0.00 90 1011.2
20260505122049 54 175 5.2 7.0 0.00 0.00 0.00 90 1012.2
20260505121037 54 181 4.3 5.2 0.00 0.00 0.00 90 1011.4
20260505120026 54 177 4.3 7.0 0.00 0.00 0.00 90 1011.2
20260505115035 54 194 2.6 4.3 0.00 0.00 0.00 89 1011.2
20260505114045 54 178 4.3 6.1 0.00 0.00 0.00 89 1011.2
20260505113033 54 185 4.3 6.1 0.00 0.00 0.00 89 1011.2
20260505112022 54 194 3.5 5.2 0.00 0.00 0.00 89 1011.2
20260505111030 54 177 2.6 3.5 0.00 0.00 0.00 89 1011.2
20260505102033 53 182 2.6 3.5 0.00 0.00 0.00 90 1011.2
20260505101021 53 181 2.6 3.5 0.00 0.00 0.00 90 1011.2
20260505100030 53 191 2.6 3.5 0.00 0.00 0.00 90 1011.2
20260505095019 53 175 3.5 4.3 0.00 0.00 0.00 89 1011.2
20260505094027 54 199 3.5 4.3 0.00 0.00 0.00 89 1011.2
20260505093034 54 201 3.5 6.1 0.00 0.00 0.00 89 1011.2
20260505092024 54 187 4.3 7.0 0.00 0.00 0.00 89 1011.2
20260505091032 54 178 3.5 6.1 0.00 0.00 0.00 89 1011.2
20260505090041 54 174 3.5 5.2 0.00 0.00 0.00 90 1011.2
20260505085019 53 162 2.6 3.5 0.00 0.00 0.00 90 1010.2
20260505084057 53 167 2.6 2.6 0.00 0.00 0.00 91 1010.2
20260505083027 53 163 1.7 2.6 0.00 0.00 0.00 91 1010.2
20260505082055 53 166 2.6 2.6 0.00 0.00 0.00 91 1010.2
20260505081024 53 180 1.7 2.6 0.00 0.00 0.00 91 1010.2
20260505080032 53 183 2.6 5.2 0.00 0.00 0.00 90 1010.2
20260505075021 53 168 3.5 5.2 0.00 0.00 0.00 90 1010.1
20260505074049 53 174 4.3 5.2 0.00 0.00 0.00 90 1010.1
20260505073019 53 165 3.5 5.2 0.00 0.00 0.00 90 1010.1
20260505072027 53 171 3.5 7.8 0.00 0.00 0.00 90 1010.1
20260505071034 53 155 3.5 4.3 0.00 0.00 0.00 90 1010.1
20260505070024 53 168 3.5 5.2 0.00 0.00 0.00 89 1010.1
20260505065022 54 172 4.3 7.8 0.00 0.00 0.00 89 1010.1
20260505064042 54 177 4.3 6.1 0.00 0.00 0.00 88 1010.1
20260505063030 54 173 3.5 5.2 0.00 0.00 0.00 88 1010.1
20260505062019 54 167 4.3 7.0 0.00 0.00 0.00 87 1010.1
20260505061046 55 185 4.3 5.2 0.00 0.00 0.00 87 1010.1
20260505060135 55 170 4.3 7.0 0.00 0.00 0.00 87 1010.1
20260505055025 55 170 3.5 6.1 0.00 0.00 0.00 86 1010.1
20260505054032 56 163 4.3 7.0 0.00 0.00 0.00 85 1010.1
20260505053021 56 177 4.3 7.8 0.00 0.00 0.00 85 1010.1
20260505052029 56 206 2.6 3.5 0.00 0.00 0.00 85 1010.1
20260505051019 56 223 3.5 5.2 0.00 0.00 0.00 84 1009.3
20260505041030 58 205 7.8 10.4 0.00 0.00 0.00 81 1009.1
20260505040057 58 186 8.7 10.4 0.00 0.00 0.00 81 1009.1
20260505035026 59 199 7.8 9.6 0.00 0.00 0.00 79 1009.1
20260505034053 59 216 7.0 13.9 0.00 0.00 0.00 78 1008.3
20260505033023 59 203 8.7 11.3 0.00 0.00 0.00 77
20260505032031 60 202 7.8 11.3 0.00 0.00 0.00 76
20260505031020 61 205 8.7 13.9 0.00 0.00 0.00 75
20260505030036 62 215 10.4 13.9 0.00 0.00 0.00 74
20260505025026 64 222 11.3 15.6 0.00 0.00 0.00 72
20260505024024 65 205 7.8 13.9 0.00 0.00 0.00 70
20260505023032 66 206 7.8 9.6 0.00 0.00 0.00 69
20260505022042 67 221 8.7 10.4 0.00 0.00 0.00 68
20260505021030 68 231 8.7 10.4 0.00 0.00 0.00 68
20260505020019 68 184 7.0 8.7 0.00 0.00 0.00 66
20260505015107 70 238 7.8 8.7 0.00 0.00 0.00 65
20260505014034 70 223 7.8 12.2 0.00 0.00 0.00 64
20260505013023 71 225 8.7 11.3 0.00 0.00 0.00 63
20260505012031 72 226 7.8 10.4 0.00 0.00 0.00 62
20260505011020 74 210 5.2 7.8 0.00 0.00 0.00 60
20260505010048 74 194 6.1 8.7 0.00 0.00 0.00 60
20260505005028 75 230 6.1 8.7 0.00 0.00 0.00 59
20260505004025 75 191 6.1 7.8 0.00 0.00 0.00 59
20260505003033 75 225 5.2 9.6 0.00 0.00 0.00 58